"Pseudo-MPEC" for TTT0005

Created 2024 Oct 4 21:22:30 UT using Find_Orb

Click here for an explanation of pseudo-MPECs

 
 Astrometry: 
     TTT0005*KB2024 09 30.86502 21 50 43.76 -13 44 09.2    ~A207       VNEOCPY64
     TTT0005 KB2024 09 30.87202 21 50 42.56 -13 44 25.1    ~A207 22.7 GVNEOCPY64
     TTT0005 KB2024 09 30.87919 21 50 41.35 -13 44 40.9    ~A207       VNEOCPY64

Station data:
(Y64) Transient Survey Telescope, Teide  (N28.298930 W16.510390)  Canary
   Islands (Spain).

Orbital elements:  TTT0005
   Perihelion 2024 Jul 13.75057 +/- 119 TT = 18:00:49 (JD 2460505.25057)
Epoch 2024 Oct  1.0 TT = JDT 2460584.5   Earth MOID: 0.1531   Ma: 0.0795
M  74.43655235 +/- 90               (J2000 ecliptic)             AutoNEOCP
n   0.93926923 +/- 0.629            Peri.   12.58408 +/- 60
a   1.03262503 +/- 0.461            Node   171.76884 +/- 7
e   0.9315741 +/- 0.218             Incl.  102.02416 +/- 54
P   1.049/383.269d         H 21.90  G  0.15   U 12.5  SR
q 0.07065821 +/- 0.589    Q 1.99459185 +/- 16.9
From 3 observations 2024 Sept. 30 (20.4 min); mean residual 0".09
Residuals in arcseconds: 
240930 Y64  .05+  .08+    240930 Y64  .09-  .16-    240930 Y64  .04+  .08+    

Ephemerides (geocentric):
Date (UTC) HH   RA             Dec           delta  r     elong  mag " sig PA
---- --------  ------------   ------------  ------ ------ -----  --- --------
2024 10 04 21  21 41 17.129   -15 52 42.58  .70680 1.5550 130.5 23.4 2818 125
2024 10 04 22  21 41 12.158   -15 53 51.32  .70770 1.5554 130.4 23.4 2853 125
2024 10 04 23  21 41 07.205   -15 54 59.86  .70859 1.5558 130.4 23.4 2889 125
2024 10 05 00  21 41 02.269   -15 56 08.19  .70948 1.5561 130.3 23.4 2924 125
2024 10 05 01  21 40 57.349   -15 57 16.30  .71038 1.5565 130.2 23.4 2960 125
2024 10 05 02  21 40 52.447   -15 58 24.21  .71127 1.5569 130.2 23.4 2996 125
2024 10 05 03  21 40 47.561   -15 59 31.91  .71216 1.5572 130.1 23.4 3032 125
2024 10 05 04  21 40 42.692   -16 00 39.41  .71306 1.5576 130.0 23.4 3068 125
2024 10 05 05  21 40 37.840   -16 01 46.70  .71395 1.5580 130.0 23.4 3104 125
2024 10 05 06  21 40 33.005   -16 02 53.78  .71485 1.5583 129.9 23.4 3141 126
2024 10 05 07  21 40 28.186   -16 04 00.66  .71574 1.5587 129.8 23.4 3177 126
2024 10 05 08  21 40 23.384   -16 05 07.34  .71664 1.5590 129.8 23.4 3214 126
2024 10 05 09  21 40 18.598   -16 06 13.81  .71754 1.5594 129.7 23.4 3251 126
2024 10 05 10  21 40 13.829   -16 07 20.09  .71843 1.5598 129.7 23.4 3288 126
2024 10 05 11  21 40 09.077   -16 08 26.15  .71933 1.5601 129.6 23.4 3325 126
2024 10 05 12  21 40 04.341   -16 09 32.02  .72023 1.5605 129.5 23.4 3363 126
2024 10 05 13  21 39 59.621   -16 10 37.69  .72112 1.5609 129.5 23.4 3400 126
2024 10 05 14  21 39 54.917   -16 11 43.16  .72202 1.5612 129.4 23.5 3438 126
2024 10 05 15  21 39 50.230   -16 12 48.43  .72292 1.5616 129.3 23.5 3476 126
2024 10 05 16  21 39 45.560   -16 13 53.50  .72382 1.5620 129.3 23.5 3514 126
2024 10 05 17  21 39 40.905   -16 14 58.37  .72472 1.5623 129.2 23.5 3552 126
2024 10 05 18  21 39 36.266   -16 16 03.05  .72561 1.5627 129.1 23.5 3590 127
2024 10 05 19  21 39 31.644   -16 17 07.53  .72651 1.5630 129.1 23.5 3629 127
2024 10 05 20  21 39 27.038   -16 18 11.82  .72741 1.5634 129.0 23.5 3667 127
2024 10 05 21  21 39 22.447   -16 19 15.91  .72831 1.5638 128.9 23.5 3706 127
2024 10 05 22  21 39 17.873   -16 20 19.80  .72921 1.5641 128.9 23.5 3745 127
2024 10 05 23  21 39 13.314   -16 21 23.50  .73011 1.5645 128.8 23.5 3784 127
2024 10 06 00  21 39 08.772   -16 22 27.01  .73101 1.5649 128.7 23.5 3824 127
2024 10 06 01  21 39 04.245   -16 23 30.33  .73191 1.5652 128.7 23.5 3863 127
2024 10 06 02  21 38 59.734   -16 24 33.46  .73281 1.5656 128.6 23.5 3903 127
2024 10 06 03  21 38 55.239   -16 25 36.39  .73372 1.5659 128.6 23.5 3943 127
2024 10 06 04  21 38 50.759   -16 26 39.14  .73462 1.5663 128.5 23.5 3983 127
2024 10 06 05  21 38 46.296   -16 27 41.69  .73552 1.5667 128.4 23.5 4023 127
2024 10 06 06  21 38 41.847   -16 28 44.06  .73642 1.5670 128.4 23.5 4064 127
2024 10 06 07  21 38 37.415   -16 29 46.23  .73732 1.5674 128.3 23.5 4105 128
2024 10 06 08  21 38 32.998   -16 30 48.22  .73823 1.5677 128.2 23.5 4145 128
2024 10 06 09  21 38 28.596   -16 31 50.03  .73913 1.5681 128.2 23.5 4187 128
2024 10 06 10  21 38 24.210   -16 32 51.64  .74003 1.5685 128.1 23.5 4228 128
2024 10 06 11  21 38 19.839   -16 33 53.07  .74094 1.5688 128.0 23.5 4269 128
2024 10 06 12  21 38 15.483   -16 34 54.32  .74184 1.5692 128.0 23.5 4311 128
2024 10 06 13  21 38 11.143   -16 35 55.38  .74274 1.5695 127.9 23.5 4353 128
2024 10 06 14  21 38 06.818   -16 36 56.25  .74365 1.5699 127.9 23.5 4395 128
2024 10 06 15  21 38 02.509   -16 37 56.95  .74455 1.5702 127.8 23.5 4437 128
2024 10 06 16  21 37 58.214   -16 38 57.46  .74546 1.5706 127.7 23.6 4480 128
2024 10 06 17  21 37 53.935   -16 39 57.79  .74636 1.5710 127.7 23.6 4523 128
2024 10 06 18  21 37 49.671   -16 40 57.93  .74727 1.5713 127.6 23.6 4566 128
2024 10 06 19  21 37 45.421   -16 41 57.90  .74817 1.5717 127.5 23.6 4609 128
2024 10 06 20  21 37 41.187   -16 42 57.69  .74908 1.5720 127.5 23.6 4652 129